| time (UTC) | temp C | wind direction | speed KPH | gust KPH | rain 1hr cm | rain 24hr cm | rain mn cm | humidity % | barometer mb |
| 20260510204501 | 13 | 257 | 14.5 | 24.1 | 0.00 | 0.00 | 0.00 | 34 | 1019.6 |
| 20260510203957 | 13 | 301 | 4.8 | 8.0 | 0.00 | 0.00 | 0.00 | 35 | 1019.9 |
| 20260510203455 | 13 | 291 | 8.0 | 9.7 | 0.00 | 0.00 | 0.00 | 35 | 1020.0 |
| 20260510202949 | 13 | 266 | 6.4 | 8.0 | 0.00 | 0.00 | 0.00 | 34 | 1019.9 |
| 20260510202445 | 13 | 311 | 11.3 | 16.1 | 0.00 | 0.00 | 0.00 | 36 | 1019.9 |
| 20260510201942 | 13 | 314 | 1.6 | 3.2 | 0.00 | 0.00 | 0.00 | 36 | 1019.6 |
| 20260510201439 | 13 | 298 | 8.0 | 11.3 | 0.00 | 0.00 | 0.00 | 35 | 1020.0 |
| 20260510200935 | 13 | 273 | 4.8 | 8.0 | 0.00 | 0.00 | 0.00 | 35 | 1019.9 |
| 20260510200430 | 13 | 298 | 4.8 | 8.0 | 0.00 | 0.00 | 0.00 | 36 | 1019.9 |
| 20260510195924 | 14 | 226 | 11.3 | 14.5 | 0.00 | 0.00 | 0.00 | 34 | 1020.1 |
| 20260510195421 | 14 | 302 | 0.0 | 3.2 | 0.00 | 0.00 | 0.00 | 35 | 1020.1 |
| 20260510194911 | 13 | 292 | 9.7 | 11.3 | 0.00 | 0.00 | 0.00 | 35 | 1020.2 |
| 20260510194407 | 13 | 297 | 4.8 | 8.0 | 0.00 | 0.00 | 0.00 | 36 | 1020.3 |
| 20260510193903 | 13 | 283 | 9.7 | 11.3 | 0.00 | 0.00 | 0.00 | 34 | 1020.3 |
| 20260510193358 | 13 | 302 | 3.2 | 4.8 | 0.00 | 0.00 | 0.00 | 35 | 1020.2 |
| 20260510192854 | 13 | 290 | 12.9 | 16.1 | 0.00 | 0.00 | 0.00 | 34 | 1020.3 |
| 20260510192349 | 13 | 303 | 8.0 | 11.3 | 0.00 | 0.00 | 0.00 | 35 | 1020.2 |
| 20260510191845 | 13 | 274 | 16.1 | 25.7 | 0.00 | 0.00 | 0.00 | 35 | 1020.5 |
| 20260510191341 | 13 | 304 | 6.4 | 8.0 | 0.00 | 0.00 | 0.00 | 35 | 1020.3 |
| 20260510190839 | 13 | 291 | 4.8 | 8.0 | 0.00 | 0.00 | 0.00 | 35 | 1020.3 |
| 20260510190336 | 13 | 300 | 3.2 | 4.8 | 0.00 | 0.00 | 0.00 | 35 | 1020.4 |
| 20260510185832 | 13 | 256 | 8.0 | 11.3 | 0.00 | 0.00 | 0.00 | 35 | 1020.4 |
| 20260510185330 | 13 | 323 | 8.0 | 9.7 | 0.00 | 0.00 | 0.00 | 35 | 1020.3 |
| 20260510184827 | 14 | 307 | 6.4 | 9.7 | 0.00 | 0.00 | 0.00 | 34 | 1020.4 |
| 20260510184324 | 14 | 266 | 6.4 | 8.0 | 0.00 | 0.00 | 0.00 | 35 | 1020.1 |
| 20260510183824 | 15 | 303 | 12.9 | 16.1 | 0.00 | 0.00 | 0.00 | 35 | 1020.3 |
| 20260510183320 | 14 | 315 | 6.4 | 9.7 | 0.00 | 0.00 | 0.00 | 34 | 1020.3 |
| 20260510182816 | 13 | 274 | 12.9 | 16.1 | 0.00 | 0.00 | 0.00 | 36 | 1020.1 |
| 20260510182313 | 13 | 325 | 8.0 | 9.7 | 0.00 | 0.00 | 0.00 | 38 | 1019.9 |
| 20260510181809 | 13 | 307 | 4.8 | 8.0 | 0.00 | 0.00 | 0.00 | 36 | 1020.1 |
| 20260510181306 | 12 | 277 | 3.2 | 4.8 | 0.00 | 0.00 | 0.00 | 37 | 1020.1 |
| 20260510180802 | 13 | 281 | 8.0 | 11.3 | 0.00 | 0.00 | 0.00 | 36 | 1020.1 |
| 20260510180259 | 13 | 291 | 6.4 | 11.3 | 0.00 | 0.00 | 0.00 | 36 | 1019.6 |
| 20260510175756 | 13 | 294 | 3.2 | 3.2 | 0.00 | 0.00 | 0.00 | 37 | 1019.8 |
| 20260510175251 | 13 | 286 | 8.0 | 9.7 | 0.00 | 0.00 | 0.00 | 37 | 1019.9 |
| 20260510174749 | 13 | 280 | 17.7 | 20.9 | 0.00 | 0.00 | 0.00 | 36 | 1020.1 |
| 20260510174246 | 12 | 297 | 9.7 | 14.5 | 0.00 | 0.00 | 0.00 | 35 | 1019.8 |
| 20260510173742 | 13 | 3 | 4.8 | 4.8 | 0.00 | 0.00 | 0.00 | 38 | 1019.8 |
| 20260510173238 | 13 | 280 | 6.4 | 8.0 | 0.00 | 0.00 | 0.00 | 36 | 1019.9 |
| 20260510172734 | 13 | 288 | 8.0 | 9.7 | 0.00 | 0.00 | 0.00 | 38 | 1020.1 |
| 20260510172230 | 13 | 281 | 6.4 | 9.7 | 0.00 | 0.00 | 0.00 | 40 | 1020.0 |
| 20260510171727 | 12 | 286 | 6.4 | 8.0 | 0.00 | 0.00 | 0.00 | 43 | 1019.9 |
| 20260510171224 | 13 | 260 | 9.7 | 11.3 | 0.00 | 0.00 | 0.00 | 38 | 1020.2 |
| 20260510170721 | 13 | 305 | 14.5 | 20.9 | 0.00 | 0.00 | 0.00 | 36 | 1020.1 |
| 20260510170217 | 12 | 263 | 8.0 | 11.3 | 0.00 | 0.00 | 0.00 | 41 | 1020.1 |
| 20260510165713 | 12 | 283 | 11.3 | 14.5 | 0.00 | 0.00 | 0.00 | 38 | 1020.2 |
| 20260510165209 | 12 | 295 | 8.0 | 11.3 | 0.00 | 0.00 | 0.00 | 36 | 1020.2 |
| 20260510164707 | 12 | 279 | 12.9 | 14.5 | 0.00 | 0.00 | 0.00 | 38 | 1020.1 |
| 20260510164204 | 12 | 290 | 9.7 | 16.1 | 0.00 | 0.00 | 0.00 | 38 | 1020.3 |
| 20260510163659 | 12 | 297 | 8.0 | 9.7 | 0.00 | 0.00 | 0.00 | 39 | 1020.2 |
| 20260510163155 | 12 | 277 | 4.8 | 9.7 | 0.00 | 0.00 | 0.00 | 39 | 1020.0 |
| 20260510162654 | 12 | 278 | 6.4 | 8.0 | 0.00 | 0.00 | 0.00 | 39 | 1020.1 |
| 20260510162152 | 12 | 294 | 17.7 | 20.9 | 0.00 | 0.00 | 0.00 | 38 | 1020.2 |
| 20260510161647 | 12 | 299 | 11.3 | 16.1 | 0.00 | 0.00 | 0.00 | 37 | 1020.1 |
| 20260510161144 | 12 | 284 | 8.0 | 11.3 | 0.00 | 0.00 | 0.00 | 40 | 1019.9 |
| 20260510160641 | 12 | 300 | 11.3 | 14.5 | 0.00 | 0.00 | 0.00 | 38 | 1020.1 |
| 20260510160136 | 12 | 316 | 8.0 | 14.5 | 0.00 | 0.00 | 0.00 | 40 | 1020.2 |
| 20260510155632 | 12 | 300 | 8.0 | 8.0 | 0.00 | 0.00 | 0.00 | 40 | 1020.2 |
| 20260510155128 | 12 | 300 | 8.0 | 9.7 | 0.00 | 0.00 | 0.00 | 41 | 1020.0 |
| 20260510154624 | 11 | 296 | 4.8 | 8.0 | 0.00 | 0.00 | 0.00 | 41 | 1020.1 |
| 20260510154120 | 12 | 302 | 6.4 | 9.7 | 0.00 | 0.00 | 0.00 | 40 | 1019.9 |
| 20260510153615 | 11 | 312 | 4.8 | 8.0 | 0.00 | 0.00 | 0.00 | 43 | 1020.0 |
| 20260510153112 | 11 | 299 | 9.7 | 11.3 | 0.00 | 0.00 | 0.00 | 42 | 1019.6 |
| 20260510152609 | 11 | 327 | 11.3 | 19.3 | 0.00 | 0.00 | 0.00 | 42 | 1019.6 |
| 20260510152105 | 11 | 302 | 6.4 | 9.7 | 0.00 | 0.00 | 0.00 | 42 | 1019.8 |
| 20260510151601 | 11 | 283 | 4.8 | 8.0 | 0.00 | 0.00 | 0.00 | 44 | 1019.8 |
| 20260510151100 | 11 | 336 | 3.2 | 4.8 | 0.00 | 0.00 | 0.00 | 44 | 1019.8 |
| 20260510150559 | 11 | 318 | 6.4 | 8.0 | 0.00 | 0.00 | 0.00 | 44 | 1019.8 |
| 20260510150055 | 11 | 284 | 11.3 | 16.1 | 0.00 | 0.00 | 0.00 | 44 | 1019.4 |
| 20260510145552 | 10 | 280 | 3.2 | 4.8 | 0.00 | 0.00 | 0.00 | 47 | 1019.5 |
| 20260510145049 | 10 | 292 | 11.3 | 14.5 | 0.00 | 0.00 | 0.00 | 46 | 1019.6 |
| 20260510144545 | 11 | 296 | 6.4 | 9.7 | 0.00 | 0.00 | 0.00 | 46 | 1019.2 |
| 20260510144041 | 10 | 282 | 4.8 | 4.8 | 0.00 | 0.00 | 0.00 | 45 | 1019.3 |
| 20260510143537 | 10 | 269 | 8.0 | 9.7 | 0.00 | 0.00 | 0.00 | 46 | 1019.4 |
| 20260510143034 | 11 | 323 | 4.8 | 4.8 | 0.00 | 0.00 | 0.00 | 44 | 1019.3 |
| 20260510142530 | 10 | 285 | 4.8 | 8.0 | 0.00 | 0.00 | 0.00 | 49 | 1019.1 |
| 20260510142027 | 10 | 312 | 9.7 | 11.3 | 0.00 | 0.00 | 0.00 | 46 | 1019.1 |
| 20260510141523 | 10 | 282 | 11.3 | 14.5 | 0.00 | 0.00 | 0.00 | 46 | 1019.0 |
| 20260510141021 | 10 | 291 | 4.8 | 8.0 | 0.00 | 0.00 | 0.00 | 46 | 1019.2 |
| 20260510140518 | 10 | 304 | 3.2 | 3.2 | 0.00 | 0.00 | 0.00 | 46 | 1019.2 |
| 20260510140017 | 10 | 299 | 11.3 | 11.3 | 0.00 | 0.00 | 0.00 | 47 | 1019.3 |
| 20260510135513 | 10 | 305 | 8.0 | 11.3 | 0.00 | 0.00 | 0.00 | 47 | 1018.9 |
| 20260510135010 | 10 | 268 | 8.0 | 9.7 | 0.00 | 0.00 | 0.00 | 47 | 1019.0 |
| 20260510134507 | 9 | 295 | 8.0 | 9.7 | 0.00 | 0.00 | 0.00 | 48 | 1019.0 |
| 20260510134004 | 9 | 284 | 3.2 | 4.8 | 0.00 | 0.00 | 0.00 | 46 | 1019.2 |
| 20260510133459 | 9 | 284 | 3.2 | 4.8 | 0.00 | 0.00 | 0.00 | 49 | 1019.2 |
| 20260510132955 | 10 | 283 | 8.0 | 9.7 | 0.00 | 0.00 | 0.00 | 48 | 1019.0 |
| 20260510132453 | 9 | 294 | 1.6 | 4.8 | 0.00 | 0.00 | 0.00 | 48 | 1018.9 |
| 20260510131949 | 8 | 328 | 3.2 | 4.8 | 0.00 | 0.00 | 0.00 | 49 | 1018.8 |
| 20260510131448 | 8 | 294 | 4.8 | 4.8 | 0.00 | 0.00 | 0.00 | 48 | 1018.7 |
| 20260510130944 | 8 | 286 | 0.0 | 3.2 | 0.00 | 0.00 | 0.00 | 49 | 1018.8 |
| 20260510130441 | 8 | 261 | 6.4 | 8.0 | 0.00 | 0.00 | 0.00 | 49 | 1018.8 |
| 20260510125938 | 8 | 288 | 3.2 | 4.8 | 0.00 | 0.00 | 0.00 | 50 | 1018.6 |
| 20260510125434 | 8 | 289 | 8.0 | 9.7 | 0.00 | 0.00 | 0.00 | 51 | 1018.5 |
| 20260510124931 | 7 | 304 | 0.0 | 0.0 | 0.00 | 0.00 | 0.00 | 55 | 1018.9 |
| 20260510124427 | 7 | 291 | 8.0 | 9.7 | 0.00 | 0.00 | 0.00 | 53 | 1018.6 |
| 20260510123924 | 7 | 310 | 1.6 | 3.2 | 0.00 | 0.00 | 0.00 | 55 | 1018.5 |
| 20260510123420 | 7 | 299 | 1.6 | 3.2 | 0.00 | 0.00 | 0.00 | 54 | 1018.6 |
| 20260510122916 | 7 | 287 | 3.2 | 4.8 | 0.00 | 0.00 | 0.00 | 56 | 1018.5 |
| 20260510122411 | 7 | 301 | 3.2 | 4.8 | 0.00 | 0.00 | 0.00 | 58 | 1018.4 |
| 20260510121907 | 7 | 301 | 1.6 | 3.2 | 0.00 | 0.00 | 0.00 | 58 | 1018.4 |
| 20260510121405 | 7 | 299 | 3.2 | 3.2 | 0.00 | 0.00 | 0.00 | 60 | 1018.4 |
| 20260510120902 | 6 | 310 | 1.6 | 3.2 | 0.00 | 0.00 | 0.00 | 63 | 1018.3 |
| 20260510120400 | 6 | 306 | 1.6 | 3.2 | 0.00 | 0.00 | 0.00 | 64 | 1018.3 |
| 20260510115855 | 6 | 290 | 0.0 | 0.0 | 0.00 | 0.00 | 0.00 | 65 | 1018.3 |
| 20260510115352 | 6 | 287 | 8.0 | 8.0 | 0.00 | 0.00 | 0.00 | 66 | 1018.1 |
| 20260510114848 | 6 | 289 | 1.6 | 3.2 | 0.00 | 0.00 | 0.00 | 68 | 1018.1 |
| 20260510114346 | 5 | 275 | 3.2 | 3.2 | 0.00 | 0.00 | 0.00 | 70 | 1017.9 |
| 20260510113846 | 5 | 289 | 0.0 | 3.2 | 0.00 | 0.00 | 0.00 | 74 | 1017.9 |
| 20260510113342 | 3 | 286 | 0.0 | 0.0 | 0.00 | 0.00 | 0.00 | 83 | 1017.9 |
| 20260510112839 | 3 | 289 | 0.0 | 0.0 | 0.00 | 0.00 | 0.00 | 88 | 1018.0 |
| 20260510112336 | 3 | 289 | 0.0 | 0.0 | 0.00 | 0.00 | 0.00 | 89 | 1017.7 |
| 20260510111832 | 3 | 289 | 0.0 | 0.0 | 0.00 | 0.00 | 0.00 | 89 | 1018.0 |
| 20260510111329 | 3 | 289 | 0.0 | 0.0 | 0.00 | 0.00 | 0.00 | 89 | 1017.6 |
| 20260510110828 | 2 | 289 | 0.0 | 0.0 | 0.00 | 0.00 | 0.00 | 88 | 1017.7 |
| 20260510110326 | 3 | 289 | 0.0 | 0.0 | 0.00 | 0.00 | 0.00 | 88 | 1017.6 |
| 20260510105822 | 2 | 289 | 0.0 | 0.0 | 0.00 | 0.00 | 0.00 | 90 | 1017.4 |
| 20260510105322 | 2 | 289 | 0.0 | 0.0 | 0.00 | 0.00 | 0.00 | 92 | 1017.2 |
| 20260510104818 | 1 | 289 | 0.0 | 0.0 | 0.00 | 0.00 | 0.00 | 92 | 1017.5 |
| 20260510104316 | 1 | 289 | 0.0 | 0.0 | 0.00 | 0.00 | 0.00 | 92 | 1017.3 |
| 20260510103812 | 1 | 289 | 0.0 | 0.0 | 0.00 | 0.00 | 0.00 | 92 | 1017.1 |
| 20260510103309 | 1 | 289 | 0.0 | 0.0 | 0.00 | 0.00 | 0.00 | 92 | 1016.9 |
| 20260510102804 | 1 | 289 | 0.0 | 0.0 | 0.00 | 0.00 | 0.00 | 92 | 1017.0 |
| 20260510102300 | 1 | 289 | 0.0 | 0.0 | 0.00 | 0.00 | 0.00 | 91 | 1017.0 |
| 20260510101757 | 1 | 289 | 0.0 | 0.0 | 0.00 | 0.00 | 0.00 | 91 | 1016.9 |
| 20260510101256 | 1 | 289 | 0.0 | 0.0 | 0.00 | 0.00 | 0.00 | 91 | 1016.9 |
| 20260510100751 | 1 | 289 | 0.0 | 0.0 | 0.00 | 0.00 | 0.00 | 91 | 1016.8 |
| 20260510100249 | 1 | 289 | 0.0 | 0.0 | 0.00 | 0.00 | 0.00 | 90 | 1016.5 |
| 20260510095744 | 1 | 289 | 0.0 | 0.0 | 0.00 | 0.00 | 0.00 | 89 | 1016.8 |
| 20260510095240 | 1 | 289 | 0.0 | 0.0 | 0.00 | 0.00 | 0.00 | 90 | 1016.5 |
| 20260510094738 | 1 | 289 | 0.0 | 0.0 | 0.00 | 0.00 | 0.00 | 89 | 1016.6 |
| 20260510094234 | 1 | 289 | 0.0 | 0.0 | 0.00 | 0.00 | 0.00 | 89 | 1016.5 |
| 20260510093730 | 1 | 289 | 0.0 | 0.0 | 0.00 | 0.00 | 0.00 | 87 | 1016.4 |
| 20260510093228 | 1 | 289 | 0.0 | 0.0 | 0.00 | 0.00 | 0.00 | 87 | 1016.4 |
| 20260510092724 | 1 | 289 | 0.0 | 0.0 | 0.00 | 0.00 | 0.00 | 86 | 1016.4 |
| 20260510092220 | 1 | 289 | 0.0 | 0.0 | 0.00 | 0.00 | 0.00 | 84 | 1016.4 |
| 20260510091716 | 1 | 289 | 0.0 | 0.0 | 0.00 | 0.00 | 0.00 | 84 | 1016.2 |
| 20260510091213 | 1 | 289 | 0.0 | 0.0 | 0.00 | 0.00 | 0.00 | 83 | 1016.1 |
| 20260510090709 | 2 | 289 | 0.0 | 0.0 | 0.00 | 0.00 | 0.00 | 83 | 1015.9 |
| 20260510090206 | 2 | 289 | 0.0 | 0.0 | 0.00 | 0.00 | 0.00 | 82 | 1015.8 |
| 20260510085701 | 2 | 289 | 0.0 | 0.0 | 0.00 | 0.00 | 0.00 | 82 | 1016.1 |
| 20260510085156 | 2 | 289 | 0.0 | 0.0 | 0.00 | 0.00 | 0.00 | 81 | 1016.0 |
| 20260510084653 | 2 | 289 | 0.0 | 0.0 | 0.00 | 0.00 | 0.00 | 81 | 1015.8 |
| 20260510084149 | 2 | 289 | 0.0 | 0.0 | 0.00 | 0.00 | 0.00 | 79 | 1015.7 |
| 20260510083646 | 3 | 289 | 0.0 | 0.0 | 0.00 | 0.00 | 0.00 | 78 | 1015.7 |
| 20260510083143 | 3 | 289 | 0.0 | 0.0 | 0.00 | 0.00 | 0.00 | 76 | 1015.7 |
| 20260510082639 | 3 | 289 | 0.0 | 0.0 | 0.00 | 0.00 | 0.00 | 75 | 1015.2 |
| 20260510082135 | 5 | 289 | 0.0 | 0.0 | 0.00 | 0.00 | 0.00 | 74 | 1015.2 |
| 20260510081630 | 5 | 286 | 0.0 | 0.0 | 0.00 | 0.00 | 0.00 | 71 | 1015.2 |
| 20260510081126 | 5 | 290 | 0.0 | 0.0 | 0.00 | 0.00 | 0.00 | 65 | 1015.2 |
| 20260510080625 | 5 | 290 | 0.0 | 0.0 | 0.00 | 0.00 | 0.00 | 64 | 1015.2 |
| 20260510080122 | 5 | 290 | 0.0 | 3.2 | 0.00 | 0.00 | 0.00 | 64 | 1015.1 |
| 20260510075620 | 6 | 290 | 0.0 | 0.0 | 0.00 | 0.00 | 0.00 | 62 | 1015.0 |
| 20260510075117 | 6 | 296 | 0.0 | 3.2 | 0.00 | 0.00 | 0.00 | 61 | 1015.0 |
| 20260510074613 | 6 | 312 | 3.2 | 4.8 | 0.00 | 0.00 | 0.00 | 61 | 1014.8 |
| 20260510074109 | 6 | 291 | 4.8 | 4.8 | 0.00 | 0.00 | 0.00 | 61 | 1014.6 |
| 20260510073559 | 6 | 291 | 0.0 | 0.0 | 0.00 | 0.00 | 0.00 | 62 | 1015.0 |
| 20260510073057 | 6 | 302 | 1.6 | 3.2 | 0.00 | 0.00 | 0.00 | 61 | 1014.7 |
| 20260510072553 | 6 | 297 | 3.2 | 4.8 | 0.00 | 0.00 | 0.00 | 61 | 1014.6 |
| 20260510072049 | 6 | 302 | 3.2 | 4.8 | 0.00 | 0.00 | 0.00 | 61 | 1014.5 |
| 20260510071545 | 6 | 290 | 4.8 | 4.8 | 0.00 | 0.00 | 0.00 | 61 | 1014.3 |
| 20260510071044 | 7 | 321 | 3.2 | 4.8 | 0.00 | 0.00 | 0.00 | 61 | 1014.3 |
| 20260510070540 | 6 | 289 | 0.0 | 3.2 | 0.00 | 0.00 | 0.00 | 61 | 1014.2 |
| 20260510070037 | 7 | 313 | 1.6 | 3.2 | 0.00 | 0.00 | 0.00 | 62 | 1014.3 |
| 20260510065533 | 7 | 303 | 4.8 | 8.0 | 0.00 | 0.00 | 0.00 | 62 | 1014.2 |
| 20260510065029 | 7 | 293 | 3.2 | 4.8 | 0.00 | 0.00 | 0.00 | 62 | 1014.1 |
| 20260510064526 | 7 | 304 | 0.0 | 3.2 | 0.00 | 0.00 | 0.00 | 62 | 1014.0 |
| 20260510064023 | 7 | 296 | 4.8 | 8.0 | 0.00 | 0.00 | 0.00 | 62 | 1013.8 |
| 20260510063520 | 7 | 304 | 3.2 | 4.8 | 0.00 | 0.00 | 0.00 | 62 | 1013.9 |
| 20260510063017 | 7 | 311 | 0.0 | 0.0 | 0.00 | 0.00 | 0.00 | 62 | 1013.7 |
| 20260510062512 | 7 | 292 | 1.6 | 3.2 | 0.00 | 0.00 | 0.00 | 62 | 1013.5 |
| 20260510062008 | 7 | 312 | 0.0 | 0.0 | 0.00 | 0.00 | 0.00 | 64 | 1013.6 |
| 20260510061505 | 7 | 303 | 0.0 | 0.0 | 0.00 | 0.00 | 0.00 | 65 | 1013.4 |
| 20260510061001 | 7 | 312 | 0.0 | 0.0 | 0.00 | 0.00 | 0.00 | 66 | 1013.5 |
| 20260510060458 | 7 | 309 | 0.0 | 0.0 | 0.00 | 0.00 | 0.00 | 67 | 1013.3 |
| 20260510055954 | 7 | 335 | 0.0 | 0.0 | 0.00 | 0.00 | 0.00 | 65 | 1013.4 |
| 20260510055450 | 7 | 335 | 0.0 | 0.0 | 0.00 | 0.00 | 0.00 | 64 | 1013.3 |
| 20260510054948 | 8 | 321 | 0.0 | 0.0 | 0.00 | 0.00 | 0.00 | 64 | 1013.1 |
| 20260510054443 | 8 | 325 | 3.2 | 3.2 | 0.00 | 0.00 | 0.00 | 64 | 1012.9 |
| 20260510053938 | 8 | 6 | 0.0 | 0.0 | 0.00 | 0.00 | 0.00 | 64 | 1013.0 |
| 20260510053434 | 8 | 7 | 0.0 | 0.0 | 0.00 | 0.00 | 0.00 | 63 | 1013.1 |
| 20260510052931 | 8 | 7 | 0.0 | 3.2 | 0.00 | 0.00 | 0.00 | 61 | 1013.0 |
| 20260510052426 | 9 | 249 | 3.2 | 4.8 | 0.00 | 0.00 | 0.00 | 61 | 1013.0 |
| 20260510051923 | 9 | 328 | 3.2 | 4.8 | 0.00 | 0.00 | 0.00 | 60 | 1012.7 |
| 20260510051420 | 9 | 348 | 4.8 | 8.0 | 0.00 | 0.00 | 0.00 | 59 | 1012.7 |
| 20260510050916 | 9 | 20 | 8.0 | 9.7 | 0.00 | 0.00 | 0.00 | 59 | 1012.9 |
| 20260510050413 | 9 | 296 | 6.4 | 8.0 | 0.00 | 0.00 | 0.00 | 59 | 1012.6 |
| 20260510045910 | 9 | 329 | 1.6 | 4.8 | 0.00 | 0.00 | 0.00 | 60 | 1012.6 |
| 20260510045407 | 9 | 314 | 3.2 | 4.8 | 0.00 | 0.00 | 0.00 | 61 | 1012.4 |
| 20260510044904 | 8 | 23 | 4.8 | 4.8 | 0.00 | 0.00 | 0.00 | 66 | 1012.3 |
| 20260510044401 | 8 | 322 | 0.0 | 0.0 | 0.00 | 0.00 | 0.00 | 70 | 1012.1 |
| 20260510043857 | 7 | 282 | 0.0 | 0.0 | 0.00 | 0.00 | 0.00 | 70 | 1012.1 |
| 20260510043353 | 7 | 327 | 0.0 | 0.0 | 0.00 | 0.00 | 0.00 | 71 | 1012.1 |
| 20260510042851 | 8 | 327 | 0.0 | 0.0 | 0.00 | 0.00 | 0.00 | 71 | 1011.9 |
| 20260510042347 | 8 | 327 | 0.0 | 0.0 | 0.00 | 0.00 | 0.00 | 69 | 1011.8 |
| 20260510041843 | 8 | 327 | 0.0 | 0.0 | 0.00 | 0.00 | 0.00 | 69 | 1011.3 |
| 20260510041340 | 8 | 327 | 0.0 | 0.0 | 0.00 | 0.00 | 0.00 | 67 | 1011.5 |
| 20260510040838 | 9 | 314 | 0.0 | 0.0 | 0.00 | 0.00 | 0.00 | 67 | 1011.4 |
| 20260510040334 | 9 | 338 | 0.0 | 0.0 | 0.00 | 0.00 | 0.00 | 68 | 1011.4 |
| 20260510035830 | 9 | 338 | 0.0 | 0.0 | 0.00 | 0.05 | 0.05 | 68 | 1011.2 |
| 20260510035326 | 10 | 338 | 0.0 | 0.0 | 0.00 | 0.05 | 0.05 | 65 | 1011.4 |
| 20260510034822 | 10 | 338 | 0.0 | 0.0 | 0.00 | 0.05 | 0.05 | 64 | 1011.1 |
| 20260510034320 | 10 | 336 | 0.0 | 0.0 | 0.00 | 0.05 | 0.05 | 64 | 1011.0 |
| 20260510033816 | 10 | 327 | 3.2 | 3.2 | 0.00 | 0.05 | 0.05 | 64 | 1010.9 |
| 20260510033313 | 10 | 320 | 0.0 | 0.0 | 0.00 | 0.05 | 0.05 | 64 | 1010.9 |
| 20260510032810 | 10 | 328 | 0.0 | 0.0 | 0.00 | 0.05 | 0.05 | 63 | 1010.8 |
| 20260510032306 | 11 | 328 | 0.0 | 0.0 | 0.00 | 0.05 | 0.05 | 60 | 1010.9 |
| 20260510031802 | 11 | 328 | 3.2 | 3.2 | 0.00 | 0.05 | 0.05 | 59 | 1010.7 |
| 20260510031257 | 11 | 356 | 0.0 | 3.2 | 0.00 | 0.05 | 0.05 | 58 | 1010.6 |
| 20260510030751 | 12 | 336 | 1.6 | 3.2 | 0.00 | 0.05 | 0.05 | 57 | 1010.4 |
| 20260510030249 | 12 | 29 | 0.0 | 3.2 | 0.00 | 0.05 | 0.05 | 56 | 1010.4 |
| 20260510025746 | 12 | 8 | 1.6 | 3.2 | 0.00 | 0.05 | 0.05 | 55 | 1010.4 |
| 20260510025244 | 12 | 317 | 0.0 | 3.2 | 0.00 | 0.05 | 0.05 | 53 | 1010.1 |
| 20260510024739 | 13 | 299 | 1.6 | 4.8 | 0.00 | 0.05 | 0.05 | 52 | 1009.9 |
| 20260510024236 | 13 | 313 | 1.6 | 3.2 | 0.00 | 0.05 | 0.05 | 52 | 1010.0 |
| 20260510023732 | 13 | 301 | 4.8 | 4.8 | 0.00 | 0.05 | 0.05 | 52 | 1010.1 |
| 20260510023224 | 13 | 301 | 3.2 | 3.2 | 0.00 | 0.05 | 0.05 | 52 | 1010.0 |
| 20260510022719 | 13 | 302 | 4.8 | 8.0 | 0.00 | 0.05 | 0.05 | 51 | 1009.9 |
| 20260510022214 | 13 | 301 | 4.8 | 8.0 | 0.00 | 0.05 | 0.05 | 51 | 1009.8 |
| 20260510021709 | 13 | 299 | 3.2 | 4.8 | 0.00 | 0.05 | 0.05 | 50 | 1009.9 |
| 20260510021207 | 14 | 304 | 9.7 | 11.3 | 0.00 | 0.05 | 0.05 | 50 | 1009.6 |
| 20260510020702 | 14 | 292 | 6.4 | 8.0 | 0.00 | 0.05 | 0.05 | 50 | 1009.4 |
| 20260510020202 | 14 | 277 | 8.0 | 9.7 | 0.00 | 0.05 | 0.05 | 49 | 1009.4 |
| 20260510015658 | 14 | 303 | 6.4 | 9.7 | 0.00 | 0.05 | 0.05 | 49 | 1009.2 |
| 20260510015155 | 14 | 302 | 11.3 | 14.5 | 0.00 | 0.05 | 0.05 | 48 | 1009.1 |
| 20260510014650 | 14 | 313 | 6.4 | 9.7 | 0.00 | 0.05 | 0.05 | 48 | 1008.9 |
| 20260510014148 | 14 | 309 | 8.0 | 11.3 | 0.00 | 0.05 | 0.05 | 48 | 1008.9 |
| 20260510013643 | 15 | 286 | 4.8 | 8.0 | 0.00 | 0.05 | 0.05 | 48 | 1008.6 |
| 20260510013139 | 14 | 292 | 6.4 | 9.7 | 0.00 | 0.05 | 0.05 | 48 | 1008.4 |
| 20260510012638 | 15 | 322 | 9.7 | 11.3 | 0.00 | 0.05 | 0.05 | 47 | 1008.3 |
| 20260510012134 | 15 | 320 | 0.0 | 3.2 | 0.00 | 0.05 | 0.05 | 47 | 1008.2 |
| 20260510011629 | 15 | 312 | 11.3 | 14.5 | 0.00 | 0.05 | 0.05 | 46 | 1007.7 |
| 20260510011125 | 15 | 304 | 9.7 | 11.3 | 0.00 | 0.05 | 0.05 | 45 | 1008.0 |
| 20260510010621 | 15 | 313 | 3.2 | 4.8 | 0.00 | 0.05 | 0.05 | 46 | 1008.0 |
| 20260510010119 | 15 | 25 | 6.4 | 8.0 | 0.00 | 0.05 | 0.05 | 45 | 1007.7 |
| 20260510005614 | 15 | 294 | 6.4 | 9.7 | 0.00 | 0.05 | 0.05 | 44 | 1007.4 |
| 20260510005112 | 16 | 251 | 6.4 | 8.0 | 0.00 | 0.05 | 0.05 | 43 | 1007.2 |
| 20260510004609 | 16 | 32 | 11.3 | 16.1 | 0.00 | 0.05 | 0.05 | 42 | 1007.2 |
| 20260510004107 | 16 | 315 | 8.0 | 9.7 | 0.00 | 0.05 | 0.05 | 42 | 1006.8 |
| 20260510003604 | 16 | 298 | 8.0 | 9.7 | 0.00 | 0.05 | 0.05 | 43 | 1006.8 |
| 20260510003100 | 17 | 278 | 9.7 | 11.3 | 0.00 | 0.05 | 0.05 | 42 | 1006.6 |
| 20260510002554 | 17 | 318 | 14.5 | 19.3 | 0.00 | 0.05 | 0.05 | 42 | 1006.6 |
| 20260510002052 | 17 | 293 | 11.3 | 14.5 | 0.00 | 0.05 | 0.05 | 42 | 1006.5 |
| 20260510001549 | 17 | 311 | 8.0 | 11.3 | 0.00 | 0.05 | 0.05 | 43 | 1006.5 |
| 20260510001048 | 17 | 310 | 6.4 | 9.7 | 0.00 | 0.05 | 0.05 | 43 | 1006.2 |
| 20260510000542 | 17 | 281 | 8.0 | 11.3 | 0.00 | 0.05 | 0.05 | 44 | 1006.2 |
| 20260510000039 | 17 | 270 | 12.9 | 14.5 | 0.00 | 0.05 | 0.05 | 44 | 1006.0 |
| 20260509235536 | 17 | 327 | 8.0 | 14.5 | 0.00 | 0.05 | 0.05 | 44 | 1005.8 |
| 20260509235033 | 17 | 279 | 4.8 | 8.0 | 0.00 | 0.05 | 0.05 | 46 | 1005.8 |
| 20260509234529 | 17 | 322 | 9.7 | 11.3 | 0.00 | 0.05 | 0.05 | 45 | 1005.9 |
| 20260509234027 | 17 | 302 | 4.8 | 4.8 | 0.00 | 0.05 | 0.05 | 45 | 1005.8 |
| 20260509233524 | 17 | 306 | 11.3 | 11.3 | 0.00 | 0.05 | 0.05 | 45 | 1005.5 |
| 20260509233021 | 17 | 282 | 14.5 | 16.1 | 0.00 | 0.05 | 0.05 | 44 | 1005.9 |
| 20260509232518 | 17 | 276 | 11.3 | 16.1 | 0.00 | 0.05 | 0.05 | 45 | 1005.4 |
| 20260509232015 | 17 | 271 | 8.0 | 9.7 | 0.00 | 0.05 | 0.05 | 45 | 1005.5 |
| 20260509231511 | 17 | 319 | 4.8 | 8.0 | 0.00 | 0.05 | 0.05 | 45 | 1005.5 |
| 20260509231009 | 17 | 270 | 11.3 | 16.1 | 0.00 | 0.05 | 0.05 | 44 | 1005.6 |
| 20260509230505 | 17 | 323 | 9.7 | 14.5 | 0.00 | 0.05 | 0.05 | 44 | 1005.4 |
| 20260509230002 | 17 | 273 | 14.5 | 20.9 | 0.00 | 0.05 | 0.05 | 43 | 1005.4 |
| 20260509225458 | 18 | 293 | 9.7 | 14.5 | 0.00 | 0.05 | 0.05 | 42 | 1005.4 |
| 20260509224954 | 18 | 289 | 14.5 | 16.1 | 0.00 | 0.05 | 0.05 | 43 | 1005.2 |
| 20260509224449 | 17 | 260 | 14.5 | 16.1 | 0.00 | 0.05 | 0.05 | 43 | 1005.2 |
| 20260509223946 | 18 | 280 | 17.7 | 20.9 | 0.00 | 0.05 | 0.05 | 42 | 1005.0 |
| 20260509223443 | 18 | 286 | 12.9 | 16.1 | 0.00 | 0.05 | 0.05 | 42 | 1005.2 |
| 20260509222941 | 18 | 294 | 11.3 | 16.1 | 0.00 | 0.05 | 0.05 | 42 | 1005.0 |
| 20260509222436 | 18 | 303 | 17.7 | 30.6 | 0.00 | 0.05 | 0.05 | 42 | 1005.1 |
| 20260509221932 | 18 | 302 | 6.4 | 9.7 | 0.00 | 0.05 | 0.05 | 42 | 1004.8 |
| 20260509221429 | 18 | 310 | 16.1 | 19.3 | 0.00 | 0.05 | 0.05 | 40 | 1004.8 |
| 20260509220924 | 20 | 286 | 22.5 | 27.4 | 0.00 | 0.05 | 0.05 | 39 | 1004.7 |
| 20260509220420 | 20 | 307 | 16.1 | 19.3 | 0.00 | 0.05 | 0.05 | 41 | 1004.5 |
| 20260509215917 | 19 | 268 | 14.5 | 16.1 | 0.00 | 0.05 | 0.05 | 41 | 1004.5 |
| 20260509215412 | 20 | 287 | 14.5 | 19.3 | 0.00 | 0.05 | 0.05 | 40 | 1004.4 |
| 20260509214910 | 20 | 305 | 22.5 | 30.6 | 0.00 | 0.05 | 0.05 | 39 | 1004.5 |
| 20260509214407 | 20 | 254 | 9.7 | 16.1 | 0.00 | 0.05 | 0.05 | 39 | 1004.3 |
| 20260509213904 | 20 | 280 | 20.9 | 30.6 | 0.00 | 0.05 | 0.05 | 39 | 1004.2 |
| 20260509213359 | 20 | 304 | 14.5 | 20.9 | 0.00 | 0.05 | 0.05 | 38 | 1004.2 |
| 20260509212857 | 20 | 288 | 11.3 | 14.5 | 0.00 | 0.05 | 0.05 | 40 | 1004.2 |
| 20260509212354 | 19 | 284 | 14.5 | 19.3 | 0.00 | 0.05 | 0.05 | 40 | 1004.1 |
| 20260509211850 | 19 | 315 | 27.4 | 32.2 | 0.00 | 0.05 | 0.05 | 41 | 1004.0 |
| 20260509211341 | 20 | 301 | 6.4 | 8.0 | 0.00 | 0.05 | 0.05 | 41 | 1003.8 |
| 20260509210837 | 18 | 276 | 8.0 | 9.7 | 0.00 | 0.05 | 0.05 | 44 | 1004.1 |
| 20260509210335 | 18 | 260 | 11.3 | 14.5 | 0.00 | 0.05 | 0.05 | 42 | 1003.9 |
| 20260509205834 | 18 | 274 | 9.7 | 14.5 | 0.00 | 0.05 | 0.05 | 43 | 1004.0 |
| 20260509205329 | 20 | 284 | 16.1 | 20.9 | 0.00 | 0.05 | 0.05 | 40 | 1004.0 |
| 20260509204826 | 19 | 272 | 17.7 | 24.1 | 0.00 | 0.05 | 0.05 | 42 | 1004.2 |